Location: Arcones
(41.1182°N, 3.7238°W)
Time: 23:20:54
(UTC+00:00)

IRIDIUM 106 - Visible Passes

Search period start: 14 March 2026 00:00
Search period end: 24 March 2026 00:00
Orbit: 776 x 779 km, 86.4° (Epoch: 14 March)

Date Brightness Start Highest point End Pass type
(mag) Time Alt. Az. Time Alt. Az. Time Alt. Az.
14 Mar 6.9 22:03:08 15° NNW 22:03:08 15° NNW 22:04:06 10° N visible
15 Mar 6.4 21:29:13 20° N 21:29:13 20° N 21:30:44 10° N visible
16 Mar 6.1 20:55:16 21° NNE 20:55:16 21° NNE 20:57:04 10° NNE visible
16 Mar 7.1 22:35:42 13° NW 22:35:42 13° NW 22:36:38 10° NNW visible
17 Mar 6.0 20:21:16 19° NE 20:21:16 19° NE 20:23:04 10° NNE visible
17 Mar 6.5 22:01:42 22° NW 22:01:42 22° NW 22:03:57 10° NNW visible
18 Mar 6.2 19:47:13 13° NE 19:47:13 13° NE 19:48:26 10° NE visible
18 Mar 5.6 21:27:39 35° NNW 21:27:39 35° NNW 21:30:47 10° N visible
19 Mar 4.9 20:53:32 47° NNE 20:53:32 47° NNE 20:57:17 10° N visible
19 Mar 7.1 22:33:57 13° WNW 22:33:57 13° WNW 22:35:39 10° NW visible
20 Mar 4.9 20:19:20 38° ENE 20:19:20 38° ENE 20:23:30 10° NNE visible
20 Mar 6.4 21:59:44 23° WNW 21:59:44 23° WNW 22:03:38 10° NNW visible
21 Mar 5.5 19:45:03 22° E 19:45:21 22° E 19:49:19 10° NNE visible
21 Mar 5.4 21:25:26 41° W 21:25:46 41° W 21:30:42 10° NNW visible
22 Mar 6.1 19:10:37 11° E 19:12:12 12° ENE 19:14:05 10° NE visible
22 Mar 4.4 20:51:01 55° SSW 20:52:09 77° W 20:57:24 10° N visible
23 Mar 4.3 20:16:26 32° SSE 20:18:40 58° E 20:23:47 10° N visible
23 Mar 6.9 21:56:48 11° WSW 21:59:48 16° WNW 22:03:01 10° NW visible
